Regional Weather Roundup
Issued by NWS State College, PA

Home | Current Version | Previous Version | Text Only | Print | Product List | Glossary On
Versions: 1 2 3 4 5 6 7 8 9 10 11 12 13 14 15 16 17 18 19 20 21 22 23 24 25 26 27 28 29 30 31 32 33 34 35 36 37 38 39 40 41 42 43 44 45 46 47 48 49 50
000
ASUS41 KCTP 071703
RWRCTP

REGIONAL WEATHER ROUNDUP
NATIONAL WEATHER SERVICE STATE COLLEGE PA
1200 PM EST SUN FEB 07 2016

Note: "fair" indicates few or no clouds below 12,000 feet with no
significant weather and/or obstructions to visibility.

* = STATION THAT DOES NOT REPORT PRECIPITATION /E.G. RAIN...SNOW...ETC/
    THUNDER OR FOG.

PAZ002>004-007>009-013>016-020>023-029>032-071800-
WESTERN PENNSYLVANIA

CITY           SKY/WX    TMP DP  RH WIND       PRES   REMARKS
ERIE           SUNNY     45  24  43 S17G25    29.99F
MEADVILLE      MOSUNNY   39  22  50 VRB7      30.00F
FRANKLIN*      SUNNY     39  25  56 S9        30.03F
NEW CASTLE     FAIR      43  25  49 VRB5      30.03F
BEAVER COUNTY  NOT AVBL
BUTLER*        SUNNY     43  23  45 S8        30.08F
PITTSBURGH INT MOSUNNY   45  22  40 S13       30.05F
PITTSBURGH     MOSUNNY   45  22  40 S12       30.06F
INDIANA*       SUNNY     43  25  49 S7        30.10F
LATROBE        SUNNY     43  23  45 SW10      30.09F
WASHINGTON CO* MOSUNNY   46  25  42 S9        30.08F
$$

PAZ004>006-010>012-017>019-024>028-033>037-041-042-045-046-049>053-071800-
CENTRAL PENNSYLVANIA

CITY           SKY/WX    TMP DP  RH WIND       PRES   REMARKS
BRADFORD       SUNNY     37  23  56 W6        30.01F
DUBOIS         SUNNY     40  22  48 SW9       30.04F
CLEARFIELD     SUNNY     41  23  48 S7        30.07F
JOHNSTOWN      SUNNY     39  20  46 W6        30.04F
ALTOONA        SUNNY     40  21  46 VRB3      30.08F
STATE COLLEGE  SUNNY     41  21  45 CALM      30.08F
WILLIAMSPORT   SUNNY     41  19  41 CALM      30.12F
SELINSGROVE    SUNNY     43  20  39 CALM      30.13F
FT INDIANTOWN  SUNNY     40  21  46 S6        30.13F
CAPITAL CITY   SUNNY     41  22  46 CALM      30.14F
HARRISBURG     PTSUNNY   40  25  55 SW5       30.14F
YORK           CLOUDY    41  22  46 N3        30.13F
$$

PAZ038>040-043-044-047-048-054-055-060>062-067>071-071800-
EASTERN PENNSYLVANIA

CITY           SKY/WX    TMP DP  RH WIND       PRES   REMARKS
SCRANTON       SUNNY     42  20  41 CALM      30.09F
MOUNT POCONO   SUNNY     40  18  41 CALM      30.05F
ALLENTOWN      SUNNY     43  22  43 N3        30.13F
QUAKERTOWN*    SUNNY     43  19  39 CALM      30.13F
READING        SUNNY     43  20  39 NW5       30.13F
LANCASTER      CLOUDY    38  25  59 W7        30.13F
COATESVILLE    MOSUNNY   41  21  45 NW6       30.13F
POTTSTOWN      CLOUDY    41  24  51 CALM      30.14F
BLUE BELL        N/A     39  25  56 CALM      30.13F
DOYLESTOWN     MOSUNNY   42  20  41 CALM      30.12F
WILLOW GROVE   NOT AVBL
NORTH PHILA    CLOUDY    45  23  42 N7        30.15F
PHILADELPHIA   PTSUNNY   44  25  47 E7        30.14F
$$



USA.gov is the U.S. government's official web portal to all federal, state and local government web resources and services.